Watford City, ND

7:28 AM CDT on March 28, 2017 (GMT -0500)
Watford City

Weather History for KS25 - December, 2012

Change the Weather History Date:

Wednesday, December 19, 2012

  Actual Average (KISN) Record (KISN)
Temperature  
Mean Temperature 6 °F -  
Max Temperature 15 °F 21 °F 51 °F (2004)
Min Temperature -2 °F 0 °F -40 °F (1983)
Degree Days  
Heating Degree Days 58    
Moisture  
Dew Point 6 °F    
Average Humidity 83    
Maximum Humidity 92    
Minimum Humidity 73    
Precipitation  
Precipitation 0.62 in - - ()
Sea Level Pressure  
Sea Level Pressure 29.90 in    
Wind  
Wind Speed 12 mph (West)    
Max Wind Speed 17 mph    
Max Gust Speed 24 mph    
Visibility 7 miles    
Events Rain , Snow    
Averages and records for this station are not official NWS values.
T = Trace of Precipitation, MM = Missing Value Source: NWS Daily Summary

Daily Weather History Graph

Daily Weather History Graph

Search for Another Location

Airport or City:

Trip Planner

Search our weather history database for the weather conditions in past years. The results will help you decide how hot, cold, wet, or windy it might be!

Date:

Astronomy

Dec. 19, 2012 Rise Set
Actual Time 8:38 AM CST 5:02 PM CST
Civil Twilight 8:02 AM CST 5:38 PM CST
Nautical Twilight 7:22 AM CST 6:18 PM CST
Astronomical Twilight 6:44 AM CST 6:56 PM CST
Moon 12:19 PM CST (12/19) No Moon Set
Length of Visible Light 9h 36m
Length of Day
8h 24m
Waxing Crescent, 45% of the Moon is Illuminated
Dec 19
Waxing Crescent
Dec 19
First Quarter
Dec 28
Full
Jan 4
Last Quarter
Jan 11
New

Hourly Weather History & Observations

Time (CST) Temp. Windchill Dew Point Humidity Pressure Visibility Wind Dir Wind Speed Gust Speed Precip Events Conditions
12:15 AM 14.0 °F -2.5 °F 8.6 °F 79% 29.67 in 9.0 mi West 17.3 mph 21.9 mph N/A Rain Light Freezing Rain
12:35 AM 14.0 °F -2.5 °F 8.6 °F 79% 29.68 in 5.0 mi West 17.3 mph - N/A Snow Light Snow
12:55 AM 14.0 °F -1.4 °F 8.6 °F 79% 29.69 in 7.0 mi West 15.0 mph - 0.01 in Snow Light Snow
1:15 AM 14.0 °F -1.4 °F 10.4 °F 86% 29.68 in 5.0 mi West 15.0 mph 21.9 mph 0.02 in Snow Light Snow
1:35 AM 14.0 °F -2.0 °F 10.4 °F 86% 29.69 in 5.0 mi West 16.1 mph 20.7 mph 0.05 in Snow Light Snow
1:55 AM 14.0 °F -1.4 °F 10.4 °F 86% 29.70 in 4.0 mi West 15.0 mph 19.6 mph 0.08 in Snow Light Snow
2:15 AM 14.0 °F -0.8 °F 8.6 °F 79% 29.71 in 4.0 mi West 13.8 mph - 0.02 in Snow Light Snow
2:35 AM 14.0 °F 0.5 °F 10.4 °F 86% 29.71 in 4.0 mi West 11.5 mph - 0.06 in Snow Light Snow
2:55 AM 14.0 °F -0.8 °F 10.4 °F 86% 29.72 in 4.0 mi West 13.8 mph 18.4 mph 0.09 in Snow Light Snow
3:15 AM 14.0 °F -2.0 °F 8.6 °F 79% 29.73 in 3.0 mi West 16.1 mph 20.7 mph 0.01 in Snow Light Snow
3:35 AM 14.0 °F -1.4 °F 10.4 °F 86% 29.73 in 5.0 mi WNW 15.0 mph 19.6 mph 0.04 in Snow Light Snow
3:55 AM 14.0 °F -1.4 °F 8.6 °F 79% 29.74 in 6.0 mi WNW 15.0 mph 18.4 mph 0.05 in Snow Light Snow
4:15 AM 14.0 °F -1.4 °F 8.6 °F 79% 29.75 in 6.0 mi WNW 15.0 mph - N/A Snow Light Snow
4:35 AM 12.2 °F -4.8 °F 8.6 °F 85% 29.75 in 2.5 mi WNW 17.3 mph 21.9 mph 0.03 in Snow Light Snow
4:55 AM 12.2 °F -3.1 °F 8.6 °F 85% 29.76 in 1.8 mi WNW 13.8 mph - 0.08 in Snow Light Snow
5:15 AM 12.2 °F -4.3 °F 8.6 °F 85% 29.76 in 2.0 mi WNW 16.1 mph 24.2 mph 0.02 in Snow Light Snow
5:35 AM 10.4 °F -6.0 °F 8.6 °F 92% 29.77 in 2.0 mi WNW 15.0 mph 19.6 mph 0.08 in Snow Light Snow
5:55 AM 10.4 °F -6.0 °F 6.8 °F 85% 29.78 in 2.5 mi WNW 15.0 mph 21.9 mph 0.13 in Snow Light Snow
6:15 AM 10.4 °F -4.8 °F 8.6 °F 92% 29.79 in 3.0 mi WNW 12.7 mph - N/A Snow Light Snow
6:35 AM 10.4 °F -5.4 °F 8.6 °F 92% 29.81 in 2.0 mi WNW 13.8 mph 18.4 mph 0.04 in Snow Light Snow
6:55 AM 10.4 °F -4.8 °F 6.8 °F 85% 29.82 in 2.0 mi WNW 12.7 mph 19.6 mph 0.07 in Snow Light Snow
7:15 AM 10.4 °F -4.1 °F 6.8 °F 85% 29.83 in 2.5 mi WNW 11.5 mph - 0.02 in Snow Light Snow
7:35 AM 10.4 °F -4.1 °F 6.8 °F 85% 29.84 in 2.5 mi WNW 11.5 mph 19.6 mph 0.05 in Snow Light Snow
7:55 AM 10.4 °F -5.4 °F 6.8 °F 85% 29.85 in 3.0 mi WNW 13.8 mph 17.3 mph 0.06 in Snow Light Snow
8:15 AM 10.4 °F -3.3 °F 6.8 °F 85% 29.86 in 5.0 mi WNW 10.4 mph - N/A Snow Light Snow
8:35 AM 10.4 °F -3.3 °F 6.8 °F 85% 29.86 in 5.0 mi WNW 10.4 mph - N/A Snow Light Snow
8:55 AM 10.4 °F -2.4 °F 6.8 °F 85% 29.87 in 7.0 mi WNW 9.2 mph - N/A Snow Light Snow
9:15 AM 10.4 °F -2.4 °F 6.8 °F 85% 29.88 in 6.0 mi WNW 9.2 mph - N/A   Overcast
9:35 AM 10.4 °F -3.3 °F 6.8 °F 85% 29.89 in 5.0 mi WNW 10.4 mph - N/A Snow Light Snow
9:55 AM 10.4 °F -4.1 °F 6.8 °F 85% 29.89 in 3.0 mi WNW 11.5 mph - N/A Snow Light Snow
10:15 AM 10.4 °F -3.3 °F 6.8 °F 85% 29.90 in 4.0 mi WNW 10.4 mph - N/A Snow Light Snow
10:35 AM 12.2 °F -0.2 °F 6.8 °F 79% 29.92 in 4.0 mi WNW 9.2 mph - N/A Snow Light Snow
10:55 AM 12.2 °F -1.0 °F 6.8 °F 79% 29.93 in 5.0 mi WNW 10.4 mph - N/A Rain Light Freezing Rain
11:15 AM 12.2 °F -2.5 °F 6.8 °F 79% 29.93 in 5.0 mi WNW 12.7 mph - N/A Rain Light Freezing Rain
11:35 AM 14.0 °F -0.2 °F 6.8 °F 73% 29.94 in 10.0 mi NW 12.7 mph - N/A   Scattered Clouds
11:55 AM 14.0 °F 0.5 °F 6.8 °F 73% 29.94 in 10.0 mi WNW 11.5 mph 19.6 mph N/A   Partly Cloudy
12:15 PM 14.0 °F 2.9 °F 6.8 °F 73% 29.95 in 10.0 mi WNW 8.1 mph 16.1 mph N/A   Mostly Cloudy
12:35 PM 14.0 °F 1.2 °F 6.8 °F 73% 29.95 in 10.0 mi WNW 10.4 mph 16.1 mph N/A Snow Light Snow
12:55 PM 14.0 °F 2.9 °F 8.6 °F 79% 29.95 in 7.0 mi WNW 8.1 mph 16.1 mph N/A Snow Light Snow
1:15 PM 14.0 °F -0.2 °F 8.6 °F 79% 29.95 in 4.0 mi WNW 12.7 mph - 0.01 in Snow Light Snow
1:35 PM 14.0 °F 2.0 °F 8.6 °F 79% 29.95 in 5.0 mi WNW 9.2 mph - 0.03 in Snow Light Snow
1:55 PM 14.0 °F 1.2 °F 8.6 °F 79% 29.95 in 5.0 mi WNW 10.4 mph - 0.05 in Snow Light Snow
2:15 PM 14.0 °F 3.9 °F 10.4 °F 86% 29.95 in 5.0 mi NW 6.9 mph - N/A Snow Light Snow
2:35 PM 14.0 °F 2.9 °F 10.4 °F 86% 29.96 in 10.0 mi NW 8.1 mph - N/A Snow Light Snow
2:55 PM 14.0 °F 3.9 °F 10.4 °F 86% 29.96 in 10.0 mi NW 6.9 mph - N/A Snow Light Snow
3:15 PM 15.8 °F 7.2 °F 10.4 °F 79% 29.97 in 10.0 mi WNW 5.8 mph - N/A   Overcast
3:35 PM 15.8 °F 5.1 °F 10.4 °F 79% 29.98 in 10.0 mi NW 8.1 mph - N/A   Overcast
3:55 PM 15.8 °F 6.1 °F 10.4 °F 79% 29.99 in 10.0 mi WNW 6.9 mph - N/A Snow Light Snow
4:15 PM 15.8 °F 4.2 °F 10.4 °F 79% 29.99 in 10.0 mi NW 9.2 mph - N/A Snow Light Snow
4:35 PM 15.8 °F 5.1 °F 10.4 °F 79% 29.99 in 10.0 mi NW 8.1 mph - N/A   Overcast
4:55 PM 14.0 °F 3.9 °F 8.6 °F 79% 30.00 in 10.0 mi WNW 6.9 mph - N/A   Overcast
5:15 PM 14.0 °F 8.2 °F 8.6 °F 79% 30.01 in 10.0 mi West 3.5 mph - N/A   Overcast
5:35 PM 12.2 °F 1.7 °F 8.6 °F 85% 30.02 in 10.0 mi West 6.9 mph - N/A   Overcast
5:55 PM 12.2 °F 1.7 °F 8.6 °F 85% 30.03 in 10.0 mi West 6.9 mph - N/A   Overcast
6:15 PM 12.2 °F 2.9 °F 8.6 °F 85% 30.03 in 10.0 mi West 5.8 mph - N/A   Overcast
6:35 PM 10.4 °F 2.2 °F 6.8 °F 85% 30.03 in 10.0 mi WSW 4.6 mph - N/A   Overcast
6:55 PM 6.8 °F -4.8 °F 1.4 °F 79% 30.04 in 10.0 mi SW 6.9 mph - N/A   Scattered Clouds
7:15 PM 5.0 °F -9.1 °F 1.4 °F 85% 30.04 in 10.0 mi SW 9.2 mph - N/A   Clear
7:35 PM 3.2 °F -12.2 °F -0.4 °F 85% 30.04 in 10.0 mi SW 10.4 mph - N/A   Clear
7:55 PM 3.2 °F -13.1 °F -0.4 °F 85% 30.04 in 10.0 mi SW 11.5 mph - N/A   Clear
8:15 PM 3.2 °F -12.2 °F -0.4 °F 85% 30.04 in 10.0 mi SW 10.4 mph - N/A   Clear
8:35 PM 1.4 °F -13.5 °F -0.4 °F 92% 30.04 in 10.0 mi SSW 9.2 mph - N/A   Clear
8:55 PM 1.4 °F -13.5 °F -0.4 °F 92% 30.04 in 10.0 mi SW 9.2 mph - N/A   Clear
9:15 PM -0.4 °F -13.4 °F -2.2 °F 92% 30.04 in 10.0 mi SW 6.9 mph - N/A   Clear
9:35 PM -0.4 °F -12.0 °F -4.0 °F 85% 30.04 in 10.0 mi SW 5.8 mph - N/A   Clear
9:55 PM -0.4 °F -13.4 °F -2.2 °F 92% 30.05 in 10.0 mi SW 6.9 mph - N/A   Clear
10:15 PM -2.2 °F -15.6 °F -4.0 °F 92% 30.05 in 10.0 mi WSW 6.9 mph - N/A   Clear
10:35 PM -2.2 °F -16.8 °F -5.8 °F 85% 30.05 in 10.0 mi WSW 8.1 mph - N/A   Clear
10:55 PM -2.2 °F -10.4 °F -5.8 °F 85% 30.04 in 10.0 mi SW 3.5 mph - N/A   Clear
11:15 PM -0.4 °F -10.4 °F -4.0 °F 85% 30.05 in 10.0 mi WSW 4.6 mph - N/A   Clear
11:35 PM -2.2 °F - -5.8 °F 85% 30.05 in 10.0 mi Calm Calm - N/A   Clear